This is the latest recevied weather packets stored in our database for station/object OK3MS-5. If no packets are shown the sender has not sent any weather packets the latest 10 day(s).
| Time | Temp. | Humidity | Pressure | Rain* | Wind** | Luminosity | Snow |
|---|---|---|---|---|---|---|---|
| 1777757708 | 12.78° C | 49% | 1018.3 hPa | 0 mm | - | 0 W/m² | - |
| 1777757402 | 13.33° C | 48% | 1018.2 hPa | 0 mm | - | 0 W/m² | - |
| 1777757105 | 13.33° C | 47% | 1018.1 hPa | 0 mm | - | 0 W/m² | - |
| 1777756803 | 13.89° C | 47% | 1018.1 hPa | 0 mm | - | 0 W/m² | - |
| 1777756505 | 13.89° C | 45% | 1018.1 hPa | 0 mm | - | 0 W/m² | - |
| 1777756202 | 13.89° C | 46% | 1018.1 hPa | 0 mm | - | 0 W/m² | - |
| 1777755904 | 14.44° C | 45% | 1018.1 hPa | 0 mm | - | 0 W/m² | - |
| 1777755603 | 13.89° C | 45% | 1018 hPa | 0 mm | - | 0 W/m² | - |
| 1777755305 | 13.89° C | 47% | 1018.2 hPa | 0 mm | - | 0 W/m² | - |
| 1777755003 | 14.44° C | 46% | 1018 hPa | 0 mm | - | 0 W/m² | - |
| 1777754704 | 14.44° C | 45% | 1018.2 hPa | 0 mm | - | 0 W/m² | - |
| 1777754407 | 14.44° C | 45% | 1018.2 hPa | 0 mm | - | 0 W/m² | - |
| 1777754104 | 14.44° C | 45% | 1018.2 hPa | 0 mm | - | 0 W/m² | - |
| 1777753807 | 14.44° C | 45% | 1018.1 hPa | 0 mm | - | 0 W/m² | - |
| 1777753505 | 14.44° C | 45% | 1018.2 hPa | 0 mm | - | 0 W/m² | - |
| 1777753208 | 14.44° C | 44% | 1018.2 hPa | 0 mm | - | 0 W/m² | - |
| 1777752904 | 15° C | 44% | 1018.2 hPa | 0 mm | - | 0 W/m² | - |
| 1777752609 | 15.56° C | 44% | 1018.1 hPa | 0 mm | - | 0 W/m² | - |
| 1777752305 | 15° C | 44% | 1018.1 hPa | 0 mm | - | 0 W/m² | - |
| 1777752008 | 15° C | 44% | 1018.2 hPa | 0 mm | - | 0 W/m² | - |
| 1777751703 | 15° C | 44% | 1018 hPa | 0 mm | - | 0 W/m² | - |
| 1777751409 | 15.56° C | 44% | 1018 hPa | 0 mm | - | 0 W/m² | - |
| 1777751103 | 15° C | 44% | 1018 hPa | 0 mm | - | 0 W/m² | - |
| 1777750809 | 14.44° C | 46% | 1018.2 hPa | 0 mm | - | 0 W/m² | - |
| 1777750504 | 14.44° C | 47% | 1018.2 hPa | 0 mm | - | 0 W/m² | - |
* Rain latest hour (hover to see other rain measurements)
** Current wind speed in m/s (hover to see current wind gust speed)